Etusivu
METAR-TAF:

METAR-TAF

Lentoasemat :

Bowers Field

Ellensburg, Washington, Yhdysvallat

Leveyspiiri: 47-02-01N, Pituuspiiri: 120-31-45W, korkeus merenpinnasta: 536 m

Tämänhetkinen sää

Tämä raportti tehtiin 1 tunti ja 0 minuuttia sitten, kello 03.53 UTC
Tuuli 4 kn pohjoisesta/koillisesta
Lämpötila -3°C
Kosteus 74%
Ilmanpaine 1018 hPa
Näkyvyys: 16.1 km
selkeää

METAR: KELN 220353Z AUTO 02004KT 10SM CLR M03/M07 A3006 RMK AO2 SLP203 T10331072

Aika: 20:53 (04:53 UTC)


TAF: puuttuu

Säähavainnot ja -ennusteet yli 4000 lentoasemalta (METAR- ja TAF-raportit).

Käytössä olevat sääasemat on merkitty karttaan keltaisilla ja punaisilla pisteillä.

Aseta hiiri pisteen päälle nähdäksesi sääaseman nimen.

Klikkaa sitten nähdäksesi säähavainnot ja -ennusteet.

Kartan vaihtaminen: klikkaa mustalla rastilla varustettuja vihreitä pisteitä, niin voit zoomata sisään; viivalla varustettua vihreää pistettä, niin voit zoomata ulos tai vihreitä nuolia, niin pääset viereisille kartoille.


METAR-TAF: